Location: Anumalkud?ru
(16.4847°N, 80.6636°E)
Time: 23:08:09
(UTC+00:00)

Cosmos 1898 Rocket - Pass Details

Date: 11 April 2026
Orbit: 750 x 778 km, 74.0° (Epoch: 9 May)

Event Time Altitude Azimuth Distance (km) Brightness Sun altitude
Rises 13:48:10 0° 200° (SSW) 3,240 6.8 -14.0°
Reaches altitude 10° 13:50:34 10° 204° (SSW) 2,311 6.1 -14.6°
Maximum altitude 13:55:45 61° 284° (WNW) 866 4.1 -15.8°
Drops below altitude 10° 14:00:54 10° 5° (N) 2,298 6.1 -17.0°
Sets 14:03:18 0° 8° (N) 3,221 6.8 -17.6°
